EW4792 Weather Reports


time (UTC)temp
C
wind
direction
speed
KPH
gust
KPH
rain 1hr
cm
rain 24hr
cm
rain mn
cm
humidity
%
barometer
mb
20260509082156 22 149 1.6 9.7 0.00 0.00 0.00 91 1011.8
20260509081635 22 148 6.4 9.7 0.00 0.00 0.00 91 1011.7
20260509081126 22 146 8.0 9.7 0.00 0.00 0.00 91 1011.7
20260509080623 22 142 4.8 9.7 0.00 0.00 0.00 91 1011.6
20260509080121 22 141 6.4 9.7 0.00 0.00 0.00 91 1011.3
20260509075725 22 144 8.0 9.7 0.00 0.00 0.00 91 1011.4
20260509075158 22 147 8.0 8.0 0.00 0.00 0.00 91 1011.3
20260509074652 22 151 4.8 8.0 0.00 0.00 0.00 91 1011.6
20260509074146 22 150 4.8 9.7 0.00 0.00 0.00 91 1011.6
20260509073210 22 142 8.0 9.7 0.00 0.00 0.00 91 1011.4
20260509072707 22 141 8.0 11.3 0.00 0.00 0.00 91 1011.3
20260509072205 22 154 9.7 16.1 0.00 0.00 0.00 91 1011.5
20260509071704 22 165 12.9 16.1 0.00 0.00 0.00 91 1011.4
20260509071201 22 161 9.7 14.5 0.00 0.00 0.00 91 1011.4
20260509070651 22 159 12.9 16.1 0.00 0.00 0.00 91 1011.7
20260509070127 23 142 12.9 16.1 0.00 0.00 0.00 91 1011.8
20260509065621 23 163 11.3 17.7 0.00 0.00 0.00 91 1011.5
20260509065154 23 167 14.5 17.7 0.00 0.00 0.00 91 1011.6
20260509064625 23 158 12.9 17.7 0.00 0.00 0.00 91 1011.6
20260509064139 23 170 9.7 17.7 0.00 0.00 0.00 90 1011.6
20260509063631 23 178 12.9 17.7 0.00 0.00 0.00 90 1011.7
20260509063126 23 189 12.9 14.5 0.00 0.00 0.00 90 1011.6
20260509062619 23 177 9.7 14.5 0.00 0.00 0.00 90 1011.6
20260509062133 23 184 8.0 16.1 0.00 0.00 0.00 90 1011.6
20260509061626 23 168 11.3 16.1 0.00 0.00 0.00 90 1011.6
20260509061120 23 166 11.3 17.7 0.00 0.00 0.00 90 1011.6
20260509060633 23 170 14.5 17.7 0.00 0.00 0.00 90 1011.6
20260509060125 23 168 12.9 17.7 0.00 0.00 0.00 90 1011.6
20260509055619 23 155 14.5 17.7 0.00 0.00 0.00 90 1011.8
20260509055132 23 170 14.5 17.7 0.00 0.00 0.00 90 1011.7
20260509054624 23 172 12.9 19.3 0.00 0.00 0.00 90 1011.8
20260509054118 23 182 14.5 22.5 0.00 0.00 0.00 90 1012.1
20260509053631 23 182 16.1 19.3 0.00 0.00 0.00 90 1012.2
20260509053124 23 172 14.5 17.7 0.00 0.00 0.00 90 1012.3
20260509052618 23 163 11.3 19.3 0.00 0.00 0.00 90 1012.2
20260509052116 23 161 14.5 19.3 0.00 0.00 0.00 90 1012.0
20260509051646 23 159 12.9 17.7 0.00 0.00 0.00 90 1012.0
20260509051121 23 155 14.5 17.7 0.00 0.00 0.00 90 1012.0
20260509050614 23 155 14.5 17.7 0.00 0.00 0.00 90 1012.2
20260509050148 23 155 16.1 17.7 0.00 0.00 0.00 90 1012.2
20260509045643 22 138 12.9 16.1 0.00 0.00 0.00 90 1012.2
20260509045153 22 128 11.3 14.5 0.00 0.00 0.00 89 1012.0
20260509044648 22 112 8.0 11.3 0.00 0.00 0.00 89 1011.9
20260509044157 22 94 8.0 11.3 0.00 0.00 0.00 89 1011.7
20260509043657 22 104 8.0 11.3 0.00 0.00 0.00 89 1011.7
20260509043153 23 111 8.0 14.5 0.00 0.00 0.00 89 1011.8
20260509042701 23 129 12.9 16.1 0.00 0.00 0.00 89 1011.7
20260509042154 23 142 12.9 16.1 0.00 0.00 0.00 89 1011.8
20260509041651 23 128 6.4 9.7 0.00 0.00 0.00 89 1011.6
20260509041146 23 123 6.4 9.7 0.00 0.00 0.00 89 1011.5
20260509040126 23 113 8.0 11.3 0.00 0.00 0.00 88 1011.5
20260509035643 23 116 8.0 11.3 0.00 0.00 0.00 88 1011.8
20260509035153 23 113 8.0 11.3 0.00 0.00 0.00 88 1011.7
20260509034652 23 113 8.0 11.3 0.00 0.00 0.00 88 1011.7
20260509034147 23 103 9.7 11.3 0.00 0.00 0.00 88 1011.7
20260509033207 23 112 6.4 11.3 0.00 0.00 0.00 88 1011.8
20260509032703 23 99 8.0 12.9 0.00 0.00 0.00 88 1011.8
20260509032226 23 107 6.4 12.9 0.00 0.00 0.00 88 1011.6
20260509031647 23 139 8.0 12.9 0.00 0.00 0.00 88 1011.6
20260509031124 23 155 9.7 12.9 0.00 0.00 0.00 88 1011.6
20260509030625 23 138 9.7 12.9 0.00 0.00 0.00 88 1011.5
20260509030122 23 130 9.7 12.9 0.00 0.00 0.00 88 1011.5
20260509025614 23 132 8.0 11.3 0.00 0.00 0.00 88 1011.5
20260509025126 23 132 6.4 8.0 0.00 0.00 0.00 88 1011.6
20260509024620 23 132 4.8 8.0 0.00 0.00 0.00 87 1011.5
20260509024133 23 132 1.6 6.4 0.00 0.00 0.00 87 1011.6
20260509023733 23 132 1.6 6.4 0.00 0.00 0.00 87 1011.4
20260509023206 23 132 3.2 9.7 0.00 0.00 0.00 87 1011.2
20260509022657 23 132 8.0 9.7 0.00 0.00 0.00 87 1011.1
20260509022147 23 134 8.0 11.3 0.00 0.00 0.00 87 1011.1
20260509021631 23 124 9.7 11.3 0.00 0.00 0.00 87 1010.9
20260509021126 23 139 8.0 11.3 0.00 0.00 0.00 87 1010.6
20260509020631 23 131 8.0 11.3 0.00 0.00 0.00 87 1010.7
20260509020134 23 128 9.7 12.9 0.00 0.00 0.00 87 1010.5
20260509015629 23 145 11.3 12.9 0.00 0.00 0.00 87 1010.6
20260509015205 23 145 11.3 14.5 0.00 0.00 0.00 87 1010.5
20260509014647 23 153 9.7 14.5 0.00 0.00 0.00 87 1010.4
20260509014148 23 132 8.0 11.3 0.00 0.00 0.00 87 1010.3
20260509013642 23 116 8.0 12.9 0.00 0.00 0.00 86 1010.2
20260509013139 23 132 9.7 12.9 0.00 0.00 0.00 86 1010.2
20260509012713 23 135 9.7 11.3 0.00 0.00 0.00 86 1010.4
20260509012114 23 128 9.7 12.9 0.00 0.00 0.00 86 1010.3
20260509011617 24 130 8.0 11.3 0.00 0.00 0.00 86 1010.3
20260509011129 24 124 8.0 11.3 0.00 0.00 0.00 86 1010.4
20260509010651 24 121 9.7 11.3 0.00 0.00 0.00 86 1010.3
20260509010200 24 124 8.0 11.3 0.00 0.00 0.00 86 1010.3
20260509005649 24 122 8.0 11.3 0.00 0.00 0.00 86 1010.2
20260509005146 24 136 8.0 9.7 0.00 0.00 0.00 86 1010.2
20260509004643 24 137 6.4 9.7 0.00 0.00 0.00 86 1010.3
20260509003625 24 149 4.8 8.0 0.00 0.00 0.00 86 1010.3
20260509003230 24 149 6.4 8.0 0.00 0.00 0.00 86 1010.2
20260509002642 24 151 6.4 8.0 0.00 0.00 0.00 86 1010.2
20260509002119 24 151 4.8 9.7 0.00 0.00 0.00 85 1010.2
20260509001705 24 147 6.4 9.7 0.00 0.00 0.00 85 1010.2
20260509001201 24 150 6.4 9.7 0.00 0.00 0.00 85 1010.2
20260509000658 24 132 6.4 9.7 0.00 0.00 0.00 85 1010.2
20260509000152 24 133 8.0 11.3 0.00 0.00 0.00 85 1010.2
20260508235646 24 128 8.0 12.9 0.00 0.00 0.00 85 1010.2
20260508235158 24 125 9.7 12.9 0.00 0.00 0.00 85 1010.2
20260508234657 24 126 6.4 11.3 0.00 0.00 0.00 85 1010.2
20260508234139 24 130 8.0 11.3 0.00 0.00 0.00 85 1010.2
20260508233616 24 132 8.0 12.9 0.00 0.00 0.00 85 1010.2
20260508233114 24 151 9.7 12.9 0.00 0.00 0.00 85 1010.2
20260508232612 23 152 11.3 12.9 0.00 0.00 0.00 85 1010.2
20260508232206 23 148 11.3 12.9 0.00 0.00 0.00 85 1010.0
20260508231701 23 143 11.3 14.5 0.00 0.00 0.00 85 1010.1
20260508231157 23 149 9.7 14.5 0.00 0.00 0.00 85 1010.1
20260508230651 23 155 12.9 14.5 0.00 0.00 0.00 85 1010.2
20260508230147 23 147 12.9 14.5 0.00 0.00 0.00 85 1010.2
20260508225642 23 157 11.3 14.5 0.00 0.00 0.00 85 1010.3
20260508225212 23 174 11.3 14.5 0.00 0.00 0.00 85 1010.3
20260508224711 23 164 11.3 14.5 0.00 0.00 0.00 85 1010.3
20260508224208 23 163 11.3 14.5 0.00 0.00 0.00 85 1010.4
20260508223703 23 155 12.9 14.5 0.00 0.00 0.00 85 1010.3
20260508223157 23 157 11.3 14.5 0.00 0.00 0.00 85 1010.3
20260508222719 23 149 9.7 14.5 0.00 0.00 0.00 85 1010.4
20260508222152 23 148 9.7 11.3 0.00 0.00 0.00 85 1010.4
20260508221708 23 165 6.4 9.7 0.00 0.00 0.00 86 1010.4
20260508221204 23 167 8.0 11.3 0.00 0.00 0.00 86 1010.4
20260508220206 23 160 8.0 14.5 0.00 0.00 0.00 85 1010.6
20260508215659 23 159 9.7 14.5 0.00 0.00 0.00 85 1010.5
20260508215149 23 153 11.3 14.5 0.00 0.00 0.00 85 1010.6
20260508214208 23 166 12.9 14.5 0.00 0.00 0.00 86 1010.7
20260508213704 23 171 12.9 14.5 0.00 0.00 0.00 86 1010.7
20260508213154 23 170 9.7 16.1 0.00 0.00 0.00 86 1010.9
20260508212628 23 159 11.3 12.9 0.00 0.00 0.00 86 1010.8
20260508212126 23 177 9.7 14.5 0.00 0.00 0.00 86 1011.0
20260508211708 23 165 11.3 14.5 0.00 0.00 0.00 86 1011.0
20260508211146 23 162 12.9 12.9 0.00 0.00 0.00 86 1011.2
20260508210151 23 157 9.7 11.3 0.00 0.00 0.00 86 1011.2
20260508205702 23 166 9.7 12.9 0.00 0.00 0.00 86 1011.2
20260508205156 23 180 9.7 12.9 0.00 0.00 0.00 86 1011.3
20260508204653 23 181 9.7 12.9 0.00 0.00 0.00 86 1011.3
20260508204153 23 182 11.3 12.9 0.00 0.00 0.00 86 1011.2
20260508203648 23 172 9.7 12.9 0.00 0.00 0.00 86 1011.2
20260508203142 23 170 9.7 12.9 0.00 0.00 0.00 86 1011.3
20260508202207 23 159 9.7 12.9 0.00 0.00 0.00 86 1011.2
20260508201205 23 172 9.7 12.9 0.00 0.00 0.00 86 1011.5
20260508200613 23 147 9.7 14.5 0.00 0.00 0.00 86 1011.5
20260508200228 23 168 9.7 14.5 0.00 0.00 0.00 86 1011.6
20260508195705 22 165 9.7 14.5 0.00 0.00 0.00 86 1011.7
20260508195201 22 155 9.7 14.5 0.00 0.00 0.00 86 1011.7
20260508194718 22 163 11.3 14.5 0.00 0.00 0.00 86 1011.7
20260508194158 22 186 9.7 12.9 0.00 0.00 0.00 86 1011.6
20260508193649 22 164 9.7 14.5 0.00 0.00 0.00 86 1011.7
20260508193142 22 174 9.7 14.5 0.00 0.00 0.00 86 1011.8
20260508192126 22 159 11.3 17.7 0.00 0.00 0.00 86 1011.9
20260508191621 22 165 14.5 17.7 0.00 0.00 0.00 86 1011.9
20260508191123 22 145 11.3 16.1 0.00 0.00 0.00 86 1012.0
20260508190646 22 138 12.9 16.1 0.00 0.00 0.00 86 1011.9
20260508190143 22 147 11.3 14.5 0.00 0.00 0.00 86 1012.1
20260508185624 22 155 11.3 12.9 0.00 0.00 0.00 86 1012.3
20260508185122 22 169 11.3 12.9 0.00 0.00 0.00 86 1012.3
20260508184616 22 157 9.7 12.9 0.00 0.00 0.00 87 1012.3
20260508184116 21 163 6.4 9.7 0.00 0.00 0.00 87 1012.3
20260508183627 21 208 0.0 1.6 0.00 0.00 0.00 87 1012.4
20260508183139 21 208 0.0 3.2 0.00 0.00 0.00 87 1012.4
20260508182207 21 208 0.0 8.0 0.00 0.00 0.00 87 1012.6
20260508181637 21 208 4.8 8.0 0.00 0.00 0.00 87 1012.8
20260508181118 21 203 3.2 9.7 0.00 0.00 0.00 87 1012.9
20260508180700 21 203 6.4 9.7 0.00 0.00 0.00 87 1012.9
20260508175620 20 195 6.4 11.3 0.00 0.00 0.00 87 1013.1
20260508175124 20 186 3.2 12.9 0.00 0.00 0.00 87 1013.3
20260508174705 20 132 9.7 12.9 0.00 0.00 0.00 88 1013.3
20260508174148 20 174 4.8 12.9 0.00 0.00 0.00 88 1013.2
20260508173642 20 153 6.4 9.7 0.00 0.00 0.00 88 1013.3
20260508173138 20 180 1.6 6.4 0.00 0.00 0.00 88 1013.4
20260508172634 19 180 0.0 8.0 0.00 0.00 0.00 88 1013.3
20260508172134 19 180 4.8 8.0 0.00 0.00 0.00 88 1013.3
20260508171630 19 180 3.2 8.0 0.00 0.00 0.00 88 1013.4
20260508171126 19 180 4.8 9.7 0.00 0.00 0.00 88 1013.3
20260508170731 18 180 6.4 9.7 0.00 0.00 0.00 88 1013.4
20260508170203 18 195 6.4 8.0 0.00 0.00 0.00 88 1013.4
20260508165213 19 247 6.4 8.0 0.00 0.00 0.00 88 1013.4
20260508164707 18 255 3.2 6.4 0.00 0.00 0.00 88 1013.5
20260508164204 18 257 3.2 6.4 0.00 0.00 0.00 88 1013.5
20260508163613 18 257 3.2 9.7 0.00 0.00 0.00 88 1013.7
20260508163205 18 257 6.4 9.7 0.00 0.00 0.00 88 1013.8
20260508162702 18 261 8.0 9.7 0.00 0.00 0.00 88 1013.8
20260508162152 18 282 3.2 11.3 0.00 0.00 0.00 88 1013.9
20260508161648 18 340 3.2 11.3 0.00 0.00 0.00 88 1013.8
20260508161141 18 300 3.2 6.4 0.00 0.00 0.00 88 1013.9
20260508160209 18 341 6.4 11.3 0.00 0.00 0.00 89 1014.1
20260508155702 18 341 6.4 9.7 0.00 0.00 0.00 88 1014.2
20260508154710 17 333 0.0 8.0 0.00 0.00 0.00 88 1014.5
20260508154205 17 332 3.2 8.0 0.00 0.00 0.00 88 1014.7
20260508153657 17 315 3.2 8.0 0.00 0.00 0.00 89 1014.8
20260508153155 17 51 0.0 8.0 0.00 0.00 0.00 88 1014.8
20260508152655 17 51 1.6 8.0 0.00 0.00 0.00 88 1014.7
20260508152149 17 354 3.2 8.0 0.00 0.00 0.00 88 1014.7
20260508151649 17 351 3.2 9.7 0.00 0.00 0.00 88 1014.9
20260508151130 17 359 3.2 9.7 0.00 0.00 0.00 88 1014.8
20260508150631 17 326 3.2 6.4 0.00 0.00 0.00 88 1014.9
20260508150127 17 323 3.2 6.4 0.00 0.00 0.00 88 1014.9
20260508145629 17 330 1.6 8.0 0.00 0.00 0.00 88 1014.9
20260508145144 17 342 3.2 8.0 0.00 0.00 0.00 88 1015.0
20260508144626 16 340 1.6 6.4 0.00 0.00 0.00 87 1014.9
20260508144134 16 330 1.6 6.4 0.00 0.00 0.00 87 1014.9
20260508143628 16 327 1.6 3.2 0.00 0.00 0.00 87 1015.2
20260508143125 16 327 0.0 1.6 0.00 0.00 0.00 87 1015.0
20260508142643 16 327 0.0 0.0 0.00 0.00 0.00 87 1015.1
20260508142126 16 327 0.0 1.6 0.00 0.00 0.00 87 1015.2
20260508141622 16 327 0.0 1.6 0.00 0.00 0.00 87 1015.0
20260508141118 16 73 0.0 1.6 0.00 0.00 0.00 87 1014.9
20260508140627 16 73 0.0 3.2 0.00 0.00 0.00 87 1014.9
20260508140141 16 73 0.0 3.2 0.00 0.00 0.00 87 1014.9
20260508135654 16 73 0.0 1.6 0.00 0.00 0.00 87 1015.0
20260508135208 16 73 0.0 3.2 0.00 0.00 0.00 86 1014.8
20260508134702 16 73 0.0 3.2 0.00 0.00 0.00 86 1014.9
20260508134158 16 73 0.0 6.4 0.00 0.00 0.00 86 1014.7
20260508133616 16 73 1.6 6.4 0.00 0.00 0.00 86 1014.7
20260508133134 16 51 0.0 3.2 0.00 0.00 0.00 86 1014.7
20260508132717 16 49 0.0 3.2 0.00 0.00 0.00 86 1014.8
20260508132146 16 324 0.0 1.6 0.00 0.00 0.00 86 1014.9
20260508131644 16 10 0.0 1.6 0.00 0.00 0.00 86 1014.8
20260508131138 16 10 0.0 1.6 0.00 0.00 0.00 86 1015.0
20260508130651 16 10 0.0 1.6 0.00 0.00 0.00 86 1015.1
20260508130146 16 10 0.0 1.6 0.00 0.00 0.00 86 1014.9
20260508125657 16 10 0.0 6.4 0.00 0.00 0.00 86 1015.0
20260508125140 16 10 1.6 4.8 0.00 0.00 0.00 86 1014.9
20260508124621 16 10 0.0 3.2 0.00 0.00 0.00 86 1015.2
20260508124122 16 10 0.0 6.4 0.00 0.00 0.00 86 1015.1
20260508123647 16 330 1.6 6.4 0.00 0.00 0.00 86 1015.3
20260508123124 16 332 0.0 3.2 0.00 0.00 0.00 86 1015.3
20260508122629 16 328 0.0 3.2 0.00 0.00 0.00 86 1015.2
20260508122208 16 327 0.0 6.4 0.00 0.00 0.00 86 1015.1
20260508121659 16 327 1.6 8.0 0.00 0.00 0.00 85 1015.2
20260508121137 16 32 3.2 8.0 0.00 0.00 0.00 85 1015.0
20260508120634 16 53 0.0 9.7 0.00 0.00 0.00 85 1014.9
20260508120211 16 342 3.2 9.7 0.00 0.00 0.00 85 1014.7
20260508115701 16 300 1.6 6.4 0.00 0.00 0.00 85 1015.1
20260508115122 16 340 1.6 4.8 0.00 0.00 0.00 85 1014.5
20260508114724 16 348 1.6 4.8 0.00 0.00 0.00 85 1014.7
20260508113713 16 98 4.8 9.7 0.00 0.00 0.00 84 1015.0
20260508113148 16 97 0.0 8.0 0.00 0.00 0.00 84 1015.3
20260508112645 16 97 1.6 9.7 0.00 0.00 0.00 84 1015.3
20260508111707 17 101 4.8 11.3 0.00 0.00 0.00 82 1015.4
20260508111145 17 55 3.2 11.3 0.00 0.00 0.00 81 1015.6
20260508110622 17 69 3.2 8.0 0.00 0.00 0.00 80 1015.9
20260508110125 17 57 1.6 6.4 0.00 0.00 0.00 80 1015.9
20260508105629 17 342 0.0 1.6 0.00 0.00 0.00 80 1015.8
20260508105127 17 342 0.0 9.7 0.00 0.00 0.00 80 1015.8
20260508104623 17 341 3.2 9.7 0.00 0.00 0.00 80 1015.8
20260508104128 17 10 6.4 9.7 0.00 0.00 0.00 79 1015.5
20260508103626 17 20 1.6 8.0 0.00 0.00 0.00 79 1015.3
20260508103124 17 33 3.2 9.7 0.00 0.00 0.00 79 1015.0
20260508102626 17 32 6.4 9.7 0.00 0.00 0.00 79 1015.0
20260508102122 17 10 3.2 9.7 0.00 0.00 0.00 79 1014.9
20260508101642 17 338 3.2 8.0 0.00 0.00 0.00 79 1015.0
20260508101140 17 359 1.6 6.4 0.00 0.00 0.00 79 1015.1
20260508100211 17 44 0.0 8.0 0.00 0.00 0.00 78 1014.8
20260508095644 17 20 0.0 9.7 0.00 0.00 0.00 78 1014.6
20260508095155 17 336 0.0 11.3 0.00 0.00 0.00 78 1014.7
20260508094633 17 15 4.8 9.7 0.00 0.00 0.00 79 1014.9
20260508094208 17 351 3.2 8.0 0.00 0.00 0.00 78 1014.9
20260508093643 17 351 1.6 8.0 0.00 0.00 0.00 78 1014.8
20260508093223 17 124 3.2 11.3 0.00 0.00 0.00 79 1014.6
20260508092640 17 99 4.8 9.7 0.00 0.00 0.00 78 1014.8
20260508091707 17 105 3.2 11.3 0.00 0.00 0.00 78 1015.1
20260508090619 17 334 6.4 12.9 0.00 0.00 0.00 78 1015.3
20260508090136 17 10 0.0 6.4 0.00 0.00 0.00 78 1015.0
20260508085614 17 10 1.6 4.8 0.00 0.00 0.00 77 1015.2
20260508085207 17 10 1.6 11.3 0.00 0.00 0.00 77 1015.1
20260508084700 17 340 1.6 11.3 0.00 0.00 0.00 77 1015.2
20260508084140 17 320 4.8 8.0 0.00 0.00 0.00 77 1015.3
20260508083641 17 2 0.0 3.2 0.00 0.00 0.00 77 1015.0
20260508082708 17 349 1.6 8.0 0.00 0.00 0.00 77 1015.2